Theta_e
332 326 323 319 308 304 301 304 310 310 312 317 315 310 308 310 310 307 324 333 335 335 339 343 345 345 345 347 346 345 345 343 340 337 336 335 335 334 334 334 334 334 334 335 336 335 334 333 333
327 324 319 311 302 297 299 306 307 312 316 318 318 316 314 312 317 320 326 333 334 337 341 343 343 345 346 348 348 347 346 345 340 337 336 335 335 335 335 334 334 334 334 336 334 334 334 334 333
323 318 313 307 300 297 299 306 309 314 317 318 316 318 315 313 319 323 330 332 336 339 341 342 343 346 347 347 347 347 345 344 339 337 336 336 335 335 335 334 334 334 334 335 334 334 333 333 332
316 313 310 303 299 302 304 309 312 314 316 318 316 312 318 321 322 327 332 333 336 337 339 341 344 346 347 346 347 346 345 343 339 336 336 336 336 336 334 333 333 334 333 333 333 333 334 334 334
313 308 301 300 300 304 308 312 315 314 314 316 316 312 314 321 326 330 331 334 333 336 338 341 342 345 345 346 346 345 344 343 338 338 338 337 337 336 332 332 333 332 332 332 332 333 333 334 334
308 305 298 296 299 305 308 315 315 313 315 316 315 314 316 323 325 328 332 333 333 334 336 338 335 339 342 343 343 343 342 339 337 336 336 336 335 332 332 332 332 331 332 332 332 333 333 334 334
306 302 298 298 300 304 308 314 314 313 314 315 318 312 316 319 326 329 330 332 333 335 334 335 336 335 334 336 337 337 337 336 336 336 335 335 334 333 332 332 331 331 331 332 332 333 334 334 334
307 304 299 298 298 302 309 314 316 316 314 320 320 313 312 318 326 329 330 329 332 333 332 332 333 333 334 335 330 331 333 335 335 334 331 329 330 329 328 326 329 330 330 331 333 335 335 334 332
310 300 296 299 301 303 310 310 317 319 316 318 320 317 319 321 327 326 325 327 330 330 330 331 330 330 331 333 328 328 330 330 330 328 325 324 326 326 326 325 327 329 330 332 333 333 332 329 328
305 298 299 304 304 304 307 308 314 315 315 316 317 317 318 323 324 321 321 322 325 327 328 328 328 328 328 330 329 331 331 331 329 328 327 327 327 328 327 321 322 325 324 328 331 332 328 326 327
305 301 303 305 307 306 305 307 314 313 311 316 315 314 317 321 321 320 320 321 322 326 327 327 326 326 327 326 326 326 326 326 326 326 326 327 328 328 328 329 329 329 321 330 331 328 325 322 322
301 305 306 307 308 305 304 307 310 313 315 318 320 316 318 319 319 319 319 320 322 324 325 325 326 325 325 325 324 325 324 325 326 327 328 328 328 328 328 329 330 332 330 329 328 323 321 317 317
304 305 306 308 308 307 306 303 305 308 317 318 318 316 317 319 319 321 321 321 322 322 325 325 326 324 323 323 323 324 325 326 327 328 328 327 327 327 328 330 327 325 324 322 320 318 314 311 313
308 308 307 307 307 305 303 303 303 306 316 317 315 314 317 318 318 320 320 320 321 322 324 325 326 324 323 321 323 324 326 326 327 328 328 327 327 327 327 323 320 318 318 316 315 310 307 305 310
307 302 306 306 306 305 306 302 301 307 316 315 315 314 316 317 319 319 320 320 321 323 324 324 326 325 322 321 323 324 326 327 326 325 325 326 328 324 322 318 314 312 313 313 312 307 304 303 308
300 301 296 304 305 306 306 298 303 311 314 314 315 315 313 316 318 320 322 322 323 324 324 325 327 325 322 320 324 326 324 319 317 317 318 319 320 319 316 311 308 306 306 309 305 305 301 300 306
296 291 293 298 305 304 303 299 305 312 313 313 315 315 315 313 317 319 321 321 321 323 324 324 326 324 322 323 320 315 313 310 309 309 310 312 312 311 308 304 303 302 301 302 303 300 299 298 303
286 289 293 294 300 303 302 300 303 310 312 313 315 315 315 314 313 317 319 320 321 322 324 324 324 323 321 316 311 308 305 303 302 302 303 303 303 303 302 301 300 299 299 298 300 298 298 297 301
291 289 289 294 297 296 299 301 304 307 311 312 313 314 314 316 318 316 317 319 319 321 322 323 322 321 317 313 309 307 302 299 298 298 299 299 300 300 300 300 298 296 296 295 296 298 296 294 296
288 287 287 293 297 295 295 294 294 305 308 312 313 313 314 315 316 314 316 317 318 319 322 323 322 319 318 317 312 305 300 297 296 296 296 297 298 298 298 297 296 295 295 294 293 295 296 294 293
287 285 287 288 295 295 293 290 293 301 307 312 315 315 315 315 315 313 314 316 318 319 321 323 322 319 320 309 301 298 297 295 294 294 294 295 296 296 296 295 295 294 294 292 291 292 293 292 292
282 290 291 290 289 283 294 283 293 299 303 304 310 314 314 314 316 313 310 311 316 313 318 320 321 317 309 306 302 301 300 294 293 293 293 294 296 296 295 294 293 293 292 290 290 290 290 291 289
284 292 290 289 287 287 289 284 289 299 299 302 305 312 314 314 312 309 308 305 303 306 307 308 308 309 307 305 304 300 295 293 293 293 294 294 293 293 293 293 292 290 289 289 289 288 288 288 287
292 290 289 289 286 280 286 286 286 293 296 302 305 310 313 310 306 302 301 302 302 303 303 302 300 298 299 299 297 296 293 292 293 294 292 291 291 291 291 290 289 288 288 287 287 287 286 286 286
289 286 279 278 279 276 287 285 288 294 299 302 304 308 311 306 301 299 299 299 299 300 300 299 299 296 297 296 295 295 295 296 295 294 292 289 288 288 288 288 287 287 286 286 286 285 285 285 284
285 285 280 274 276 276 288 284 290 296 298 305 307 309 303 302 300 300 299 299 298 298 298 298 298 297 297 297 297 298 297 296 294 292 291 289 288 287 287 286 286 286 286 285 285 284 284 283 282
285 281 290 280 278 277 283 288 294 296 298 304 303 300 299 299 299 299 299 298 297 297 297 297 296 296 296 296 295 294 294 292 290 289 288 287 286 286 286 285 285 285 284 284 283 282 282 282 282
285 289 283 284 270 272 280 284 285 287 290 300 298 299 297 297 296 296 296 295 296 296 295 295 295 294 293 293 292 291 290 289 287 286 286 286 286 285 284 284 283 283 283 283 282 282 281 280 280
284 284 285 286 282 276 276 282 287 287 290 293 296 294 293 293 293 294 294 294 293 293 292 292 292 292 291 290 289 288 287 286 286 285 285 285 284 283 283 282 282 282 281 281 281 280 280 279 279
287 284 285 282 281 283 281 282 291 291 294 292 290 290 291 292 293 292 291 291 291 290 290 289 289 288 288 287 286 285 285 284 284 283 284 284 282 282 281 281 280 280 280 280 280 279 279 278 277
Wind_Speed
6 4 1 4 2 2 2 4 1 4 3 0 4 4 5 2 4 2 1 4 12 12 9 10 9 9 11 12 11 14 15 16 15 14 13 13 13 12 11 11 10 10 10 10 10 11 11 10 9
4 2 3 2 4 1 4 2 5 3 5 8 6 3 2 2 1 5 9 8 13 12 9 9 8 9 12 14 14 14 14 16 15 14 13 12 12 11 11 11 10 10 9 10 10 10 10 10 9
3 3 2 3 3 4 4 4 5 3 7 3 5 3 4 1 1 13 3 12 13 11 10 8 8 8 12 16 14 13 15 15 14 13 12 11 11 11 10 10 9 9 9 9 9 9 9 9 9
4 4 3 2 4 5 5 3 4 10 2 2 3 6 1 4 10 5 13 13 14 12 10 9 9 10 14 16 14 16 15 16 14 13 13 12 11 10 9 9 8 8 8 8 8 9 9 9 9
3 3 2 1 4 4 4 3 8 8 6 4 4 5 2 2 7 14 14 13 14 11 9 8 10 12 14 15 15 15 15 14 14 13 11 11 11 10 9 8 7 7 7 7 7 8 8 8 8
4 3 2 4 4 3 4 4 5 4 4 5 4 9 6 4 13 15 13 12 14 13 9 8 8 10 12 14 13 13 12 12 13 12 11 10 9 9 8 7 6 6 6 6 7 7 7 7 8
5 3 3 4 5 3 4 6 5 6 6 6 8 9 2 6 10 16 13 11 10 11 10 8 8 9 10 12 12 11 11 11 11 11 10 9 7 7 7 5 5 5 5 6 6 7 7 8 9
5 4 2 4 3 6 3 5 2 7 6 2 5 7 5 7 14 14 14 13 9 10 9 9 8 8 8 8 10 11 10 10 9 9 9 8 7 6 5 4 4 4 5 5 7 8 9 9 9
3 3 4 5 4 5 5 3 2 2 6 2 5 4 0 19 17 14 14 10 9 8 9 9 9 8 7 8 7 9 10 9 8 7 7 6 4 3 3 2 3 4 5 6 7 9 10 8 7
4 5 9 6 4 4 4 3 3 5 5 4 2 2 12 20 18 17 14 13 12 13 11 9 9 9 8 6 6 6 6 5 5 5 5 3 3 2 1 2 4 4 6 6 8 10 9 7 6
5 7 6 6 6 4 3 3 5 2 3 8 14 11 17 19 16 16 16 16 14 13 9 11 9 9 9 7 5 3 3 3 4 5 4 3 2 1 1 1 2 2 4 3 5 6 6 7 5
4 6 8 8 7 5 4 2 3 7 8 7 9 17 20 22 19 19 19 18 16 13 11 12 10 9 8 6 6 6 4 4 3 3 4 3 2 2 1 2 2 3 3 4 4 4 5 7 7
8 5 8 11 8 6 3 8 8 7 11 7 11 17 22 21 18 17 14 16 17 16 11 11 10 9 8 8 6 6 6 4 4 3 3 3 2 2 1 3 4 4 4 4 4 5 5 6 6
7 9 15 11 10 6 5 6 8 7 4 4 10 16 18 22 22 16 18 17 17 16 13 11 11 9 9 7 8 6 6 5 4 3 3 4 3 3 4 4 5 5 4 4 4 5 6 6 6
8 15 15 14 8 7 3 12 8 9 3 9 10 10 14 17 20 22 19 18 18 16 12 14 11 9 9 9 7 5 5 5 4 4 4 3 4 5 5 5 5 4 3 6 5 6 6 6 6
5 6 16 8 11 7 8 25 6 5 7 10 12 11 12 16 18 15 15 15 16 14 14 12 10 11 9 7 6 5 5 5 5 4 5 7 7 6 6 5 5 4 4 4 5 4 6 5 6
10 14 14 13 12 8 18 11 13 9 10 10 12 14 14 12 13 14 14 14 14 13 13 12 11 11 9 8 7 7 8 6 5 5 6 8 8 8 7 5 5 5 5 5 4 6 4 5 5
13 14 12 11 3 17 22 16 6 8 11 13 13 12 13 16 19 14 13 12 12 12 12 12 10 11 11 8 8 6 7 6 5 6 6 8 7 9 7 7 7 6 6 5 4 6 6 4 3
13 19 18 7 5 7 15 20 16 9 10 12 12 13 14 16 13 13 12 12 11 11 12 13 12 13 10 7 6 5 5 5 5 6 8 7 8 8 8 6 7 7 7 6 5 2 6 6 5
8 13 23 17 8 2 12 13 10 16 17 14 16 15 15 12 13 13 14 12 13 13 13 13 14 14 10 7 5 5 5 5 6 5 8 8 8 8 8 8 7 6 5 6 7 6 1 4 6
13 13 8 15 7 8 6 12 14 14 12 11 13 14 14 15 15 14 14 14 12 13 13 13 13 14 11 11 9 8 8 6 4 6 7 8 9 10 9 9 7 7 5 5 6 6 5 3 6
14 8 16 14 13 19 12 14 10 18 24 10 13 14 16 15 13 11 12 11 12 6 8 10 13 11 10 11 9 14 7 7 4 6 7 7 9 10 9 9 8 7 5 6 7 6 6 3 4
9 10 10 14 11 6 10 7 6 7 17 23 14 17 14 16 16 14 12 10 7 7 7 7 9 8 10 9 10 8 10 9 8 7 10 9 9 10 10 8 8 7 6 8 9 9 10 7 5
6 9 9 11 7 9 14 11 8 13 20 20 20 16 19 16 13 10 10 11 9 7 8 8 10 9 9 10 10 11 15 14 11 8 7 5 6 6 7 8 7 9 8 8 8 9 10 9 9
8 6 4 7 8 6 6 15 17 8 18 23 27 22 16 15 16 15 12 11 10 9 8 9 11 11 11 14 14 16 14 11 12 9 7 8 6 4 5 7 9 8 8 9 8 9 10 9 9
1 9 7 8 4 1 6 10 5 5 8 14 24 16 16 15 13 16 12 10 11 10 9 10 10 13 11 12 14 15 14 8 7 8 7 7 5 5 8 9 9 9 8 9 9 8 7 9 8
5 10 7 2 1 3 5 5 6 8 8 9 17 18 17 15 15 14 14 11 12 10 10 11 13 14 13 11 12 10 11 10 8 11 9 7 7 7 9 10 9 8 9 9 9 7 8 8 8
5 7 4 5 5 5 3 4 3 12 12 11 16 16 14 12 14 13 12 13 10 11 10 10 9 13 16 14 11 11 11 11 10 10 9 8 9 9 8 9 9 8 9 8 8 7 7 8 6
5 3 6 4 3 4 3 1 2 10 13 4 9 12 14 14 14 13 10 14 11 12 11 11 9 9 10 14 12 14 12 8 9 9 9 8 9 9 9 9 8 8 8 7 8 8 7 8 7
4 5 4 4 4 1 3 1 7 13 7 8 8 10 11 12 12 13 14 13 14 12 12 13 10 10 9 10 10 15 12 9 8 10 9 8 9 9 9 8 8 7 7 6 7 7 6 6 6
Wind_Direction
329 339 31 37 56 46 211 231 275 142 139 249 91 152 181 90 169 187 140 164 145 146 156 155 139 150 164 162 150 145 143 136 125 123 123 124 119 116 108 92 90 87 85 86 81 78 72 67 66
338 3 44 94 103 139 255 215 197 165 137 130 99 108 84 149 80 128 145 160 145 141 142 133 137 155 167 170 156 152 153 135 125 127 127 127 120 117 112 103 94 89 89 84 77 71 67 64 61
47 43 80 106 136 186 232 219 157 105 152 143 119 46 143 180 117 158 145 147 138 136 136 136 133 143 168 159 152 152 147 129 126 128 129 129 121 113 105 102 95 90 83 78 75 71 65 58 54
26 10 37 115 218 243 205 232 150 142 196 72 131 116 125 250 154 178 141 145 140 138 136 133 124 126 129 141 147 146 141 126 130 133 137 130 125 119 110 109 105 96 85 78 72 67 61 55 49
41 73 16 247 247 269 256 236 163 167 146 152 167 168 107 108 123 143 144 149 148 141 137 136 114 116 125 131 133 133 135 128 134 133 126 127 114 118 119 113 103 91 77 67 61 52 45 37 33
38 90 32 242 246 250 254 187 165 164 155 140 128 148 162 126 140 148 148 151 155 148 140 135 119 111 115 119 121 113 117 131 134 137 136 133 130 127 122 114 104 91 77 64 51 43 36 28 24
121 98 217 288 275 273 238 160 178 177 162 220 152 146 148 180 160 153 147 147 155 149 139 136 130 120 111 112 113 123 129 130 134 139 134 123 120 117 109 101 96 79 56 43 33 25 17 11 7
116 119 200 226 258 274 221 187 194 168 203 91 162 181 192 184 159 150 146 152 153 155 147 142 132 128 126 128 124 124 125 126 124 122 122 119 114 110 106 85 55 53 43 24 15 13 7 6 5
158 108 192 220 185 265 347 231 191 92 132 218 189 151 346 139 148 152 157 157 158 164 157 154 146 140 138 133 133 129 135 136 130 126 120 116 126 122 119 82 35 30 24 13 12 21 26 27 26
166 168 203 205 187 232 267 214 290 164 154 230 182 41 129 150 156 159 172 168 176 171 169 165 155 149 145 142 141 141 142 140 137 136 135 125 119 108 56 21 355 22 20 25 35 42 36 27 22
199 220 203 223 215 213 247 249 159 264 226 207 196 164 161 162 166 170 178 181 179 172 171 177 164 158 154 148 147 147 145 140 142 148 148 135 127 128 78 37 35 29 41 48 49 44 38 31 27
237 230 205 227 216 172 224 291 245 189 256 320 166 157 162 172 173 177 179 181 180 176 180 182 171 165 159 152 157 156 155 151 158 159 152 151 145 132 70 55 45 62 74 70 60 53 49 41 37
243 234 233 236 228 213 209 230 226 223 240 348 137 156 172 178 175 179 178 181 187 183 178 183 176 170 167 162 162 160 161 163 152 157 157 157 147 121 115 102 75 59 50 58 56 49 51 47 46
310 258 243 233 241 212 197 250 156 257 135 132 175 178 174 177 178 173 180 185 187 189 178 182 184 172 165 168 174 170 159 154 154 151 162 169 158 151 116 91 69 57 50 59 68 57 48 43 43
286 274 272 247 243 216 142 258 200 223 176 168 194 205 182 178 177 183 182 182 185 189 180 178 176 173 173 181 173 166 162 150 143 134 125 110 122 107 103 88 70 53 46 70 70 69 63 62 64
279 249 250 219 218 225 180 246 196 180 168 208 183 195 191 190 185 181 182 179 182 179 181 175 171 175 177 174 160 148 127 115 103 98 94 88 92 97 91 82 65 51 56 72 64 52 60 59 81
241 258 249 252 210 204 210 250 217 174 192 220 200 198 194 185 190 190 181 180 174 178 173 171 172 170 164 143 119 108 99 82 76 68 69 70 76 79 84 80 65 57 57 55 56 54 47 44 74
244 259 254 264 281 212 227 234 225 181 189 206 209 201 195 199 199 185 178 176 176 172 172 167 169 152 137 119 106 91 83 70 66 68 66 70 72 76 82 80 73 69 69 57 62 72 63 63 76
273 274 269 266 340 349 259 254 223 202 200 217 214 198 196 207 191 182 174 174 169 173 168 171 153 152 141 135 129 117 111 103 78 70 73 73 79 80 89 82 78 71 65 53 37 33 61 47 4
305 282 270 278 262 252 294 289 319 240 208 205 215 214 202 192 179 185 174 173 174 171 179 173 161 160 160 154 127 122 131 97 99 89 75 71 75 79 82 79 72 59 71 50 35 24 35 69 26
258 281 279 266 254 221 261 277 273 256 205 200 207 210 208 196 184 180 172 173 170 178 176 174 166 165 157 131 115 102 100 106 99 92 81 66 73 70 69 68 68 62 52 62 55 30 31 100 53
255 276 263 256 253 251 180 272 242 225 218 208 202 187 189 178 186 174 164 160 165 148 135 148 155 148 139 146 141 157 151 139 127 116 105 82 69 73 69 73 70 66 58 51 53 47 46 74 73
253 227 265 288 248 232 197 239 217 167 230 211 208 208 191 180 174 172 160 139 116 117 112 106 108 115 138 143 149 135 114 114 115 110 102 87 72 62 67 66 65 67 65 65 67 60 57 54 71
271 255 235 254 231 233 220 212 214 208 207 222 209 207 193 165 141 136 127 130 127 115 111 110 108 100 102 111 117 123 128 129 124 125 110 102 90 80 77 85 81 80 83 80 75 72 70 73 72
198 226 197 230 208 226 246 197 244 205 213 214 198 189 170 152 150 141 147 153 134 130 124 122 122 116 117 114 115 115 113 117 128 125 115 115 94 91 97 97 90 89 90 88 87 81 72 68 72
171 242 231 237 232 256 260 225 210 292 265 228 192 158 140 149 151 145 150 151 133 133 130 126 130 125 120 118 125 128 125 118 106 105 112 95 97 122 104 96 94 96 99 93 88 83 81 81 78
0 218 227 233 280 235 228 256 250 339 309 138 142 144 146 146 146 141 136 142 128 135 135 134 134 124 119 120 108 98 97 99 113 105 108 109 119 109 102 99 100 99 93 90 91 89 92 85 80
198 306 198 204 180 236 256 276 0 316 328 157 153 156 144 138 133 133 137 124 117 112 109 114 124 125 123 109 113 101 100 104 119 106 109 111 109 112 109 105 100 97 90 93 96 95 92 92 83
217 255 255 228 243 138 238 208 164 290 293 252 146 138 135 138 136 128 128 106 109 99 102 100 103 103 104 109 114 108 108 121 106 113 117 119 115 119 109 104 105 102 101 98 97 93 96 95 96
200 269 231 255 197 307 245 359 13 313 279 125 104 114 116 119 128 122 114 115 111 110 111 92 104 94 95 95 113 113 113 117 119 116 115 117 116 105 107 107 108 108 100 97 98 99 103 106 101